Back to catalog

CZ-4B DEB

AlivePO
NORAD 37572·DEBRIS·🇨🇳 China

Launched May 27, 2008 from Taiyuan Satellite Launch Center

Loading…

Next Passes (next 24 hours)

TLE

FreshSource: Space-Track

Epoch: Sep 14, 2026, 05:24 UTC

1 37572U 08026D   26257.22518612  .00000332  00000-0  30010-3 0  9994
2 37572  98.7151 249.3333 0238798 335.3197  85.3392 13.78006933907671

Track CZ-4B DEB in real time with AllMySat

Download on the App Store